DKH1858 ZGGG-ZSSS

Flight info

Callsign DKH1858
Flight time 1h 41m
Altitude 33100
Route LMN G471 XEBUL H22 PV X72 DO H22 UPNUG DCT AREPI B221 SUPAR
Aircraft A321/M-SDE2E3FGILRWXY/LB2

Departure

Time 2026-05-05 13:18
Airport Guangzhou Baiyun International Airport (ZGGG)

Arrival

Time 2026-05-05 14:59
Airport Shanghai Hongqiao International Airport (ZSSS)
Time Latitude Longitude Altitude Speed Heading
2026-05-05 12:47 23.40071 113.30518 65 ft 0 kts 322°
2026-05-05 13:07 23.40062 113.30525 64 ft 3 kts 322°
2026-05-05 13:08 23.40046 113.30539 64 ft 3 kts 320°
2026-05-05 13:08 23.40030 113.30553 64 ft 3 kts 321°
2026-05-05 13:08 23.40014 113.30567 64 ft 3 kts 324°
2026-05-05 13:08 23.39998 113.30579 64 ft 3 kts 324°
2026-05-05 13:09 23.39984 113.30593 64 ft 3 kts 298°
2026-05-05 13:09 23.39976 113.30613 64 ft 2 kts 285°
2026-05-05 13:09 23.39975 113.30620 64 ft 0 kts 284°
2026-05-05 13:10 23.39976 113.30613 64 ft 2 kts 284°
2026-05-05 13:11 23.39976 113.30585 64 ft 5 kts 251°
2026-05-05 13:11 23.39943 113.30554 64 ft 8 kts 198°
2026-05-05 13:11 23.39892 113.30581 64 ft 10 kts 116°
2026-05-05 13:11 23.39871 113.30664 64 ft 13 kts 103°
2026-05-05 13:12 23.39817 113.30734 64 ft 14 kts 175°
2026-05-05 13:12 23.39744 113.30775 64 ft 11 kts 124°
2026-05-05 13:12 23.39677 113.30805 64 ft 11 kts 192°
2026-05-05 13:12 23.39592 113.30783 64 ft 14 kts 194°
2026-05-05 13:13 23.39490 113.30755 64 ft 16 kts 194°
2026-05-05 13:13 23.39372 113.30722 64 ft 19 kts 194°
2026-05-05 13:13 23.39236 113.30686 64 ft 21 kts 193°
2026-05-05 13:13 23.39087 113.30647 64 ft 23 kts 193°
2026-05-05 13:14 23.38936 113.30605 64 ft 23 kts 194°
2026-05-05 13:14 23.38775 113.30561 64 ft 25 kts 194°
2026-05-05 13:14 23.38602 113.30515 64 ft 25 kts 194°
2026-05-05 13:14 23.38464 113.30477 64 ft 20 kts 194°
2026-05-05 13:15 23.38322 113.30438 64 ft 21 kts 194°
2026-05-05 13:15 23.38171 113.30397 64 ft 23 kts 194°
2026-05-05 13:15 23.38020 113.30356 64 ft 20 kts 194°
2026-05-05 13:15 23.37920 113.30329 64 ft 13 kts 194°
2026-05-05 13:16 23.37829 113.30304 64 ft 14 kts 194°
2026-05-05 13:16 23.37741 113.30280 64 ft 13 kts 194°
2026-05-05 13:16 23.37658 113.30265 64 ft 6 kts 160°
2026-05-05 13:16 23.37630 113.30306 64 ft 8 kts 105°
2026-05-05 13:17 23.37615 113.30376 64 ft 11 kts 103°
2026-05-05 13:17 23.37597 113.30457 64 ft 11 kts 104°
2026-05-05 13:17 23.37607 113.30534 64 ft 10 kts 42°
2026-05-05 13:17 23.37680 113.30563 64 ft 15 kts 13°
2026-05-05 13:18 23.37905 113.30622 64 ft 65 kts 14°
2026-05-05 13:18 23.38590 113.30810 65 ft 135 kts 13°
2026-05-05 13:18 23.39677 113.31102 159 ft 176 kts 14°
2026-05-05 13:18 23.40848 113.31394 809 ft 177 kts 13°
2026-05-05 13:19 23.42085 113.31677 1463 ft 182 kts 12°
2026-05-05 13:19 23.43325 113.31983 2058 ft 190 kts 19°
2026-05-05 13:19 23.44601 113.32483 2483 ft 201 kts 21°
2026-05-05 13:19 23.45980 113.32968 2891 ft 215 kts 17°
2026-05-05 13:20 23.47490 113.33405 3196 ft 235 kts 15°
2026-05-05 13:20 23.49131 113.33866 3613 ft 252 kts 15°
2026-05-05 13:20 23.50852 113.34376 4194 ft 260 kts 16°
2026-05-05 13:20 23.52609 113.34915 4875 ft 264 kts 16°
2026-05-05 13:21 23.54396 113.35455 5529 ft 269 kts 15°
2026-05-05 13:21 23.56217 113.35988 6187 ft 273 kts 12°
2026-05-05 13:21 23.58091 113.36375 6852 ft 276 kts
2026-05-05 13:21 23.60003 113.36666 7519 ft 278 kts
2026-05-05 13:22 23.61886 113.37165 8134 ft 283 kts 24°
2026-05-05 13:22 23.63434 113.38505 8692 ft 289 kts 53°
2026-05-05 13:22 23.64229 113.40510 9254 ft 292 kts 80°
2026-05-05 13:22 23.64473 113.42713 9850 ft 295 kts 85°
2026-05-05 13:23 23.64698 113.44959 10331 ft 302 kts 81°
2026-05-05 13:23 23.65090 113.47266 10591 ft 318 kts 77°
2026-05-05 13:23 23.65623 113.49685 10792 ft 336 kts 75°
2026-05-05 13:23 23.66212 113.52209 11000 ft 352 kts 75°
2026-05-05 13:24 23.66817 113.54867 11222 ft 368 kts 75°
2026-05-05 13:24 23.67412 113.57623 11520 ft 380 kts 76°
2026-05-05 13:24 23.67834 113.60486 12020 ft 385 kts 87°
2026-05-05 13:24 23.67817 113.63417 12578 ft 388 kts 92°
2026-05-05 13:25 23.67671 113.66366 13088 ft 392 kts 94°
2026-05-05 13:25 23.67487 113.69349 13589 ft 396 kts 93°
2026-05-05 13:25 23.67323 113.72325 14072 ft 400 kts 92°
2026-05-05 13:25 23.67189 113.75412 14568 ft 403 kts 91°
2026-05-05 13:26 23.67082 113.78429 15069 ft 405 kts 91°
2026-05-05 13:26 23.66975 113.81511 15519 ft 410 kts 91°
2026-05-05 13:26 23.66858 113.84637 15935 ft 414 kts 92°
2026-05-05 13:26 23.66728 113.87796 16374 ft 418 kts 92°
2026-05-05 13:27 23.66595 113.90970 16811 ft 422 kts 92°
2026-05-05 13:27 23.66461 113.94186 17231 ft 425 kts 92°
2026-05-05 13:27 23.66328 113.97413 17645 ft 429 kts 91°
2026-05-05 13:27 23.66195 114.00678 18056 ft 432 kts 91°
2026-05-05 13:28 23.66060 114.03956 18448 ft 435 kts 91°
2026-05-05 13:28 23.65921 114.07265 18856 ft 438 kts 91°
2026-05-05 13:28 23.65780 114.10593 19243 ft 441 kts 91°
2026-05-05 13:28 23.65638 114.13951 19643 ft 444 kts 91°
2026-05-05 13:29 23.65495 114.17320 20034 ft 446 kts 91°
2026-05-05 13:29 23.65351 114.20703 20412 ft 449 kts 91°
2026-05-05 13:29 23.65206 114.24114 20693 ft 453 kts 91°
2026-05-05 13:29 23.65186 114.27549 20697 ft 451 kts 83°
2026-05-05 13:30 23.65796 114.30879 20783 ft 446 kts 68°
2026-05-05 13:30 23.67159 114.33893 21118 ft 441 kts 51°
2026-05-05 13:30 23.69160 114.36374 21487 ft 433 kts 36°
2026-05-05 13:30 23.71537 114.38364 21860 ft 431 kts 30°
2026-05-05 13:31 23.73996 114.40255 22195 ft 433 kts 30°
2026-05-05 13:31 23.76469 114.42159 22533 ft 436 kts 30°
2026-05-05 13:31 23.78922 114.44120 22866 ft 439 kts 32°
2026-05-05 13:31 23.81355 114.46142 23193 ft 441 kts 32°
2026-05-05 13:32 23.83793 114.48200 23522 ft 443 kts 32°
2026-05-05 13:32 23.86208 114.50221 23828 ft 445 kts 32°
2026-05-05 13:32 23.88684 114.52261 24146 ft 446 kts 31°
2026-05-05 13:32 23.91171 114.54291 24443 ft 448 kts 31°
2026-05-05 13:33 23.93675 114.56335 24722 ft 451 kts 31°
2026-05-05 13:33 23.96192 114.58402 24985 ft 453 kts 32°
2026-05-05 13:33 23.98715 114.60488 25263 ft 455 kts 32°
2026-05-05 13:33 24.01246 114.62584 25533 ft 458 kts 31°
2026-05-05 13:34 24.03788 114.64689 25830 ft 459 kts 31°
2026-05-05 13:34 24.06343 114.66798 26093 ft 461 kts 31°
2026-05-05 13:34 24.08910 114.68911 26357 ft 463 kts 31°
2026-05-05 13:34 24.11494 114.71038 26602 ft 465 kts 31°
2026-05-05 13:35 24.14078 114.73172 26856 ft 467 kts 31°
2026-05-05 13:35 24.16682 114.75329 27084 ft 470 kts 31°
2026-05-05 13:35 24.19292 114.77493 27312 ft 472 kts 31°
2026-05-05 13:35 24.21918 114.79670 27551 ft 474 kts 31°
2026-05-05 13:36 24.24550 114.81852 27777 ft 476 kts 31°
2026-05-05 13:36 24.27184 114.84069 27997 ft 480 kts 33°
2026-05-05 13:36 24.29586 114.86666 28196 ft 491 kts 44°
2026-05-05 13:36 24.31724 114.89590 28430 ft 494 kts 47°
2026-05-05 13:37 24.33789 114.92617 28655 ft 497 kts 48°
2026-05-05 13:37 24.35841 114.95685 28839 ft 500 kts 48°
2026-05-05 13:37 24.37895 114.98701 29059 ft 500 kts 47°
2026-05-05 13:37 24.40016 115.01725 29335 ft 499 kts 46°
2026-05-05 13:38 24.42157 115.04722 29642 ft 498 kts 46°
2026-05-05 13:38 24.44290 115.07712 29873 ft 499 kts 46°
2026-05-05 13:38 24.46412 115.10729 30166 ft 499 kts 47°
2026-05-05 13:38 24.48512 115.13753 30411 ft 500 kts 47°
2026-05-05 13:39 24.50620 115.16802 30686 ft 499 kts 47°
2026-05-05 13:39 24.52722 115.19828 30904 ft 500 kts 47°
2026-05-05 13:39 24.54841 115.22858 31150 ft 500 kts 46°
2026-05-05 13:39 24.56961 115.25883 31393 ft 500 kts 46°
2026-05-05 13:40 24.59074 115.28907 31666 ft 499 kts 46°
2026-05-05 13:40 24.61179 115.31934 31901 ft 498 kts 46°
2026-05-05 13:40 24.63283 115.34964 32112 ft 499 kts 46°
2026-05-05 13:40 24.65383 115.37985 32317 ft 499 kts 46°
2026-05-05 13:41 24.67490 115.41037 32565 ft 499 kts 47°
2026-05-05 13:41 24.69527 115.44126 32780 ft 499 kts 48°
2026-05-05 13:41 24.71545 115.47224 32987 ft 499 kts 48°
2026-05-05 13:41 24.73563 115.50341 33143 ft 500 kts 48°
2026-05-05 13:42 24.77590 115.56564 33137 ft 499 kts 48°
2026-05-05 13:42 24.81632 115.62778 33140 ft 499 kts 48°
2026-05-05 13:43 24.85665 115.68994 33144 ft 499 kts 48°
2026-05-05 13:43 24.89695 115.75227 33148 ft 500 kts 48°
2026-05-05 13:44 24.93736 115.81473 33184 ft 500 kts 48°
2026-05-05 13:44 24.97774 115.87728 33183 ft 501 kts 48°
2026-05-05 13:45 25.01781 115.93940 33181 ft 500 kts 48°
2026-05-05 13:45 25.05810 116.00196 33181 ft 499 kts 48°
2026-05-05 13:46 25.09850 116.06475 33155 ft 498 kts 49°
2026-05-05 13:46 25.13830 116.12673 33114 ft 498 kts 49°
2026-05-05 13:47 25.17828 116.18902 33097 ft 498 kts 49°
2026-05-05 13:47 25.21831 116.25152 33107 ft 498 kts 49°
2026-05-05 13:48 25.25839 116.31414 33104 ft 500 kts 49°
2026-05-05 13:48 25.29854 116.37697 33097 ft 502 kts 49°
2026-05-05 13:49 25.33892 116.44021 33101 ft 505 kts 49°
2026-05-05 13:49 25.37945 116.50383 33109 ft 506 kts 49°
2026-05-05 13:50 25.41990 116.56743 33157 ft 506 kts 49°
2026-05-05 13:50 25.46041 116.63113 33176 ft 506 kts 49°
2026-05-05 13:51 25.50088 116.69488 33162 ft 507 kts 49°
2026-05-05 13:51 25.54138 116.75880 33125 ft 508 kts 50°
2026-05-05 13:52 25.58189 116.82284 33116 ft 508 kts 50°
2026-05-05 13:52 25.62253 116.88712 33112 ft 509 kts 50°
2026-05-05 13:53 25.66315 116.95139 33115 ft 510 kts 50°
2026-05-05 13:53 25.70358 117.01557 33120 ft 511 kts 50°
2026-05-05 13:54 25.74437 117.08034 33115 ft 513 kts 50°
2026-05-05 13:54 25.78517 117.14523 33126 ft 513 kts 50°
2026-05-05 13:55 25.82603 117.21032 33122 ft 515 kts 50°
2026-05-05 13:55 25.86701 117.27567 33123 ft 516 kts 51°
2026-05-05 13:56 25.90803 117.34117 33122 ft 517 kts 51°
2026-05-05 13:56 25.94219 117.39582 33123 ft 519 kts 51°
2026-05-05 13:57 25.98335 117.46180 33134 ft 520 kts 51°
2026-05-05 13:57 26.03157 117.53908 33140 ft 521 kts 51°
2026-05-05 13:58 26.06578 117.59410 33179 ft 521 kts 51°
2026-05-05 13:58 26.10702 117.66044 33226 ft 520 kts 51°
2026-05-05 13:59 26.16878 117.75992 33177 ft 521 kts 51°
2026-05-05 14:00 26.23056 117.85972 33145 ft 522 kts 51°
2026-05-05 14:00 26.27172 117.92629 33146 ft 523 kts 51°
2026-05-05 14:01 26.31299 117.99316 33166 ft 523 kts 51°
2026-05-05 14:01 26.35420 118.06001 33212 ft 523 kts 51°
2026-05-05 14:02 26.39536 118.12691 33194 ft 524 kts 52°
2026-05-05 14:02 26.43654 118.19394 33241 ft 523 kts 52°
2026-05-05 14:03 26.47766 118.26091 33232 ft 522 kts 52°
2026-05-05 14:03 26.51867 118.32786 33205 ft 522 kts 52°
2026-05-05 14:04 26.55935 118.39437 33177 ft 522 kts 52°
2026-05-05 14:04 26.60021 118.46125 33221 ft 520 kts 52°
2026-05-05 14:05 26.64088 118.52789 33225 ft 519 kts 52°
2026-05-05 14:05 26.68139 118.59442 33190 ft 518 kts 52°
2026-05-05 14:06 26.72187 118.66100 33160 ft 517 kts 53°
2026-05-05 14:06 26.76230 118.72751 33154 ft 517 kts 53°
2026-05-05 14:07 26.80268 118.79412 33152 ft 518 kts 53°
2026-05-05 14:07 26.84311 118.86091 33152 ft 519 kts 53°
2026-05-05 14:08 26.88364 118.92790 33161 ft 520 kts 53°
2026-05-05 14:08 26.92415 118.99499 33203 ft 519 kts 53°
2026-05-05 14:09 26.96456 119.06207 33218 ft 520 kts 53°
2026-05-05 14:09 27.00469 119.12878 33235 ft 519 kts 53°
2026-05-05 14:10 27.04513 119.19599 33202 ft 520 kts 53°
2026-05-05 14:10 27.08550 119.26332 33175 ft 520 kts 53°
2026-05-05 14:11 27.12588 119.33071 33140 ft 521 kts 53°
2026-05-05 14:11 27.16635 119.39832 33139 ft 522 kts 54°
2026-05-05 14:12 27.20681 119.46605 33140 ft 522 kts 54°
2026-05-05 14:12 27.24725 119.53387 33155 ft 523 kts 54°
2026-05-05 14:13 27.28359 119.60475 33175 ft 524 kts 61°
2026-05-05 14:13 27.31665 119.67782 33148 ft 525 kts 62°
2026-05-05 14:14 27.34983 119.75105 33128 ft 526 kts 62°
2026-05-05 14:14 27.38354 119.82359 33125 ft 527 kts 62°
2026-05-05 14:15 27.41737 119.89732 33162 ft 527 kts 62°
2026-05-05 14:15 27.45069 119.97079 33139 ft 528 kts 62°
2026-05-05 14:16 27.48409 120.04383 33134 ft 528 kts 62°
2026-05-05 14:16 27.51773 120.11740 33129 ft 529 kts 62°
2026-05-05 14:17 27.55125 120.19124 33122 ft 530 kts 63°
2026-05-05 14:17 27.58481 120.26525 33151 ft 530 kts 63°
2026-05-05 14:18 27.61864 120.33900 33197 ft 530 kts 59°
2026-05-05 14:18 27.64037 120.37239 33139 ft 526 kts 43°
2026-05-05 14:18 27.66829 120.39850 33132 ft 518 kts 29°
2026-05-05 14:19 27.72918 120.44095 33165 ft 515 kts 25°
2026-05-05 14:19 27.78935 120.48233 33127 ft 517 kts 27°
2026-05-05 14:20 27.84924 120.52674 33126 ft 518 kts 28°
2026-05-05 14:20 27.90968 120.57099 33147 ft 517 kts 27°
2026-05-05 14:21 27.97049 120.61431 33126 ft 518 kts 27°
2026-05-05 14:21 28.03319 120.65321 33081 ft 505 kts 11°
2026-05-05 14:22 28.06694 120.66134 33118 ft 490 kts 359°
2026-05-05 14:22 28.10067 120.66483 33176 ft 485 kts 355°
2026-05-05 14:22 28.16754 120.66915 33178 ft 484 kts 355°
2026-05-05 14:23 28.23516 120.67550 33138 ft 486 kts 357°
2026-05-05 14:23 28.30245 120.68303 33097 ft 486 kts 357°
2026-05-05 14:24 28.36981 120.68948 33096 ft 485 kts 356°
2026-05-05 14:24 28.43718 120.69582 33099 ft 486 kts 357°
2026-05-05 14:25 28.50464 120.70272 33117 ft 487 kts 357°
2026-05-05 14:25 28.57196 120.70961 33191 ft 485 kts 357°
2026-05-05 14:26 28.63884 120.71626 33177 ft 486 kts 357°
2026-05-05 14:26 28.70657 120.72308 33185 ft 486 kts 357°
2026-05-05 14:27 28.77338 120.73041 33183 ft 485 kts 358°
2026-05-05 14:27 28.84050 120.73803 33179 ft 483 kts 358°
2026-05-05 14:28 28.90730 120.74513 33165 ft 481 kts 357°
2026-05-05 14:28 28.97391 120.75169 33126 ft 480 kts 358°
2026-05-05 14:29 29.04034 120.75854 33099 ft 479 kts 358°
2026-05-05 14:29 29.10673 120.76549 33089 ft 479 kts 358°
2026-05-05 14:30 29.17309 120.77232 33092 ft 479 kts 358°
2026-05-05 14:30 29.23948 120.77915 33093 ft 479 kts 358°
2026-05-05 14:31 29.30479 120.78602 32858 ft 460 kts 358°
2026-05-05 14:31 29.33624 120.78935 32636 ft 449 kts 358°
2026-05-05 14:31 29.36715 120.79254 32226 ft 444 kts 358°
2026-05-05 14:32 29.39780 120.79564 31751 ft 440 kts 358°
2026-05-05 14:32 29.42827 120.79875 31284 ft 437 kts 358°
2026-05-05 14:32 29.45841 120.80187 30834 ft 433 kts 358°
2026-05-05 14:32 29.48829 120.80501 30384 ft 430 kts 358°
2026-05-05 14:33 29.51800 120.80814 29927 ft 426 kts 359°
2026-05-05 14:33 29.54736 120.81121 29473 ft 423 kts 359°
2026-05-05 14:33 29.57658 120.81444 29039 ft 420 kts
2026-05-05 14:33 29.60526 120.82134 28466 ft 427 kts 12°
2026-05-05 14:34 29.63316 120.83471 27584 ft 440 kts 22°
2026-05-05 14:34 29.66035 120.85152 26662 ft 450 kts 26°
2026-05-05 14:34 29.68776 120.86957 25751 ft 457 kts 26°
2026-05-05 14:34 29.71538 120.88763 25156 ft 454 kts 26°
2026-05-05 14:35 29.74260 120.90473 24708 ft 448 kts 25°
2026-05-05 14:35 29.77000 120.92129 24215 ft 443 kts 24°
2026-05-05 14:35 29.79756 120.93772 23715 ft 438 kts 24°
2026-05-05 14:35 29.82408 120.95371 23223 ft 434 kts 24°
2026-05-05 14:36 29.85059 120.96999 22713 ft 430 kts 25°
2026-05-05 14:36 29.87683 120.98631 22212 ft 426 kts 25°
2026-05-05 14:36 29.90282 121.00248 21715 ft 422 kts 25°
2026-05-05 14:36 29.92856 121.01840 21214 ft 418 kts 25°
2026-05-05 14:37 29.95406 121.03407 20835 ft 413 kts 25°
2026-05-05 14:37 29.97946 121.04969 20782 ft 413 kts 25°
2026-05-05 14:37 30.00477 121.06530 20773 ft 414 kts 25°
2026-05-05 14:37 30.02998 121.08090 20757 ft 408 kts 25°
2026-05-05 14:38 30.05499 121.09640 20761 ft 408 kts 25°
2026-05-05 14:38 30.07998 121.11189 20755 ft 409 kts 25°
2026-05-05 14:38 30.10496 121.12736 20619 ft 405 kts 25°
2026-05-05 14:38 30.12966 121.14266 20138 ft 402 kts 25°
2026-05-05 14:39 30.15430 121.15793 19592 ft 400 kts 25°
2026-05-05 14:39 30.17867 121.17306 19101 ft 396 kts 25°
2026-05-05 14:39 30.20279 121.18807 18609 ft 392 kts 25°
2026-05-05 14:39 30.22668 121.20293 18123 ft 388 kts 25°
2026-05-05 14:40 30.24987 121.21867 17617 ft 387 kts 34°
2026-05-05 14:40 30.26891 121.24057 17073 ft 388 kts 51°
2026-05-05 14:40 30.28397 121.26630 16904 ft 387 kts 56°
2026-05-05 14:40 30.29814 121.29279 16914 ft 387 kts 57°
2026-05-05 14:41 30.31197 121.31880 16966 ft 387 kts 56°
2026-05-05 14:41 30.32651 121.34522 17042 ft 387 kts 55°
2026-05-05 14:41 30.34120 121.37097 16896 ft 381 kts 54°
2026-05-05 14:41 30.35657 121.39570 16376 ft 377 kts 46°
2026-05-05 14:42 30.37732 121.41380 15660 ft 374 kts 22°
2026-05-05 14:42 30.40207 121.42059 15140 ft 364 kts 359°
2026-05-05 14:42 30.42695 121.41750 14704 ft 356 kts 348°
2026-05-05 14:42 30.45118 121.41227 14176 ft 354 kts 348°
2026-05-05 14:43 30.47546 121.40773 13624 ft 353 kts 351°
2026-05-05 14:43 30.49979 121.40460 13096 ft 351 kts 353°
2026-05-05 14:43 30.52410 121.40239 12581 ft 349 kts 355°
2026-05-05 14:43 30.54821 121.40040 12066 ft 346 kts 355°
2026-05-05 14:44 30.57203 121.39824 11763 ft 338 kts 354°
2026-05-05 14:44 30.59493 121.39591 11627 ft 324 kts 354°
2026-05-05 14:44 30.61698 121.39352 11513 ft 311 kts 354°
2026-05-05 14:44 30.63807 121.39125 11392 ft 299 kts 354°
2026-05-05 14:45 30.65849 121.38909 11139 ft 293 kts 354°
2026-05-05 14:45 30.67871 121.38696 10777 ft 291 kts 354°
2026-05-05 14:45 30.69879 121.38489 10394 ft 290 kts 354°
2026-05-05 14:45 30.71882 121.38285 10012 ft 289 kts 354°
2026-05-05 14:46 30.73885 121.38078 9627 ft 288 kts 354°
2026-05-05 14:46 30.75873 121.37869 9245 ft 287 kts 354°
2026-05-05 14:46 30.77830 121.37663 8868 ft 286 kts 355°
2026-05-05 14:46 30.79806 121.37458 8493 ft 285 kts 355°
2026-05-05 14:47 30.81778 121.37253 8123 ft 283 kts 355°
2026-05-05 14:47 30.83737 121.37048 7741 ft 283 kts 355°
2026-05-05 14:47 30.85689 121.36844 7377 ft 282 kts 355°
2026-05-05 14:47 30.87645 121.36640 7007 ft 281 kts 355°
2026-05-05 14:48 30.89587 121.36438 6644 ft 280 kts 355°
2026-05-05 14:48 30.91528 121.36236 6271 ft 280 kts 355°
2026-05-05 14:48 30.93461 121.36032 5913 ft 278 kts 355°
2026-05-05 14:48 30.95389 121.35839 5549 ft 278 kts 355°
2026-05-05 14:49 30.97312 121.35657 5170 ft 277 kts 355°
2026-05-05 14:49 30.99231 121.35472 4953 ft 278 kts 355°
2026-05-05 14:49 31.01162 121.35278 4909 ft 278 kts 355°
2026-05-05 14:49 31.02446 121.35148 4904 ft 278 kts 355°
2026-05-05 14:50 31.04371 121.34955 4896 ft 278 kts 355°
2026-05-05 14:50 31.06942 121.34701 4771 ft 276 kts 355°
2026-05-05 14:50 31.08214 121.34575 4550 ft 276 kts 355°
2026-05-05 14:50 31.10782 121.34315 4019 ft 278 kts 354°
2026-05-05 14:51 31.12033 121.34020 3730 ft 278 kts 339°
2026-05-05 14:51 31.13621 121.32775 3286 ft 275 kts 308°
2026-05-05 14:51 31.14715 121.31011 3138 ft 263 kts 300°
2026-05-05 14:51 31.15714 121.29277 3042 ft 251 kts 302°
2026-05-05 14:52 31.16794 121.27704 2861 ft 245 kts 307°
2026-05-05 14:52 31.18066 121.26431 2696 ft 240 kts 331°
2026-05-05 14:52 31.19636 121.25941 2537 ft 230 kts
2026-05-05 14:52 31.21183 121.26243 2309 ft 223 kts 16°
2026-05-05 14:53 31.22726 121.26425 2009 ft 223 kts 357°
2026-05-05 14:53 31.24270 121.26269 1996 ft 223 kts 354°
2026-05-05 14:53 31.25821 121.26064 1995 ft 224 kts 353°
2026-05-05 14:53 31.27365 121.25853 1993 ft 224 kts 353°
2026-05-05 14:54 31.28894 121.25646 1981 ft 224 kts 354°
2026-05-05 14:54 31.30457 121.25434 1974 ft 223 kts 353°
2026-05-05 14:54 31.32003 121.25256 1971 ft 223 kts
2026-05-05 14:54 31.33488 121.25662 1968 ft 220 kts 31°
2026-05-05 14:55 31.34595 121.26805 1977 ft 213 kts 61°
2026-05-05 14:55 31.35103 121.28391 1995 ft 206 kts 89°
2026-05-05 14:55 31.34931 121.30002 1986 ft 198 kts 118°
2026-05-05 14:55 31.34105 121.31235 2013 ft 193 kts 143°
2026-05-05 14:56 31.33030 121.32133 2063 ft 183 kts 149°
2026-05-05 14:56 31.31913 121.32595 2016 ft 160 kts 169°
2026-05-05 14:56 31.30847 121.32731 1917 ft 149 kts 175°
2026-05-05 14:56 31.29841 121.32811 1724 ft 144 kts 175°
2026-05-05 14:57 31.28848 121.32893 1532 ft 143 kts 175°
2026-05-05 14:57 31.27849 121.32973 1333 ft 143 kts 174°
2026-05-05 14:57 31.26860 121.33057 1127 ft 142 kts 174°
2026-05-05 14:57 31.25881 121.33133 914 ft 142 kts 174°
2026-05-05 14:58 31.24895 121.33210 703 ft 141 kts 174°
2026-05-05 14:58 31.23919 121.33288 500 ft 140 kts 174°
2026-05-05 14:58 31.22946 121.33369 340 ft 140 kts 174°
2026-05-05 14:58 31.21974 121.33446 169 ft 140 kts 174°
2026-05-05 14:59 31.21008 121.33528 47 ft 139 kts 174°
2026-05-05 14:59 31.20094 121.33599 25 ft 117 kts 175°
2026-05-05 14:59 31.19437 121.33660 24 ft 82 kts 175°
2026-05-05 14:59 31.19140 121.33663 24 ft 22 kts 186°